Location: Unspecified
(54.1780°N, 0.0000°E)
Time: 10:42:38
(UTC+00:00)

Tiros 1 - All Passes

Search period start: 18 June 2019 00:00
Search period end: 28 June 2019 00:00
Orbit: 631 x 664 km, 48.4° (Epoch: 17 June)

Date Brightness Start Highest point End Pass type
(mag) Time Alt. Az. Time Alt. Az. Time Alt. Az.
18 Jun - 01:06:53 10° SSW 01:10:14 20° SSE 01:13:34 10° ESE visible
18 Jun - 02:47:21 10° WSW 02:51:39 37° S 02:55:55 10° ESE daylight
18 Jun - 04:29:00 10° WSW 04:33:19 38° S 04:37:35 10° ESE daylight
18 Jun - 06:11:18 10° WSW 06:14:44 21° SSW 06:18:10 10° SSE daylight
18 Jun - 23:53:26 10° SSE 23:54:47 11° SE 23:56:07 10° ESE visible
19 Jun - 01:31:55 10° SW 01:35:54 29° SSE 01:39:53 10° E visible
19 Jun - 03:13:07 10° WSW 03:17:30 41° S 03:21:51 10° ESE daylight
19 Jun - 04:55:02 10° W 04:59:06 31° SSW 05:03:09 10° SE daylight
19 Jun - 06:38:17 10° WSW 06:40:17 13° SW 06:42:17 10° SSW daylight
20 Jun - 00:17:02 10° SSW 00:20:17 19° SSE 00:23:33 10° ESE visible
20 Jun - 01:57:24 10° SW 02:01:41 37° SSE 02:05:57 10° ESE visible
20 Jun - 03:39:02 10° WSW 03:43:21 39° S 03:47:39 10° ESE daylight
20 Jun - 05:21:17 10° WSW 05:24:48 22° SSW 05:28:19 10° SSE daylight
20 Jun - 23:04:02 10° SSE 23:04:51 10° SE 23:05:42 10° SE visible
21 Jun - 00:42:00 10° SW 00:45:57 28° SSE 00:49:54 10° E visible
21 Jun - 02:23:09 10° WSW 02:27:32 41° S 02:31:53 10° ESE visible
21 Jun - 04:05:03 10° W 04:09:09 31° SSW 04:13:14 10° SE daylight
21 Jun - 05:48:07 10° WSW 05:50:22 13° SW 05:52:35 10° S daylight
21 Jun - 23:27:11 10° S 23:30:21 18° SSE 23:33:31 10° ESE visible
22 Jun - 01:07:27 10° SW 01:11:44 36° SSE 01:15:59 10° ESE visible
22 Jun - 02:49:03 10° WSW 02:53:24 39° S 02:57:42 10° ESE daylight
22 Jun - 04:31:16 10° WSW 04:34:52 23° SSW 04:38:28 10° SSE daylight
22 Jun - 23:52:04 10° SW 23:56:00 27° SSE 23:59:55 10° E visible
23 Jun - 01:33:11 10° WSW 01:37:34 41° S 01:41:56 10° ESE visible
23 Jun - 03:15:04 10° W 03:19:13 32° SSW 03:23:20 10° SE daylight
23 Jun - 04:57:59 10° WSW 05:00:27 14° SW 05:02:53 10° S daylight
23 Jun - 22:37:21 10° S 22:40:26 17° SSE 22:43:28 10° ESE visible
24 Jun - 00:17:30 10° SW 00:21:46 35° SSE 00:26:01 10° E visible
24 Jun - 01:59:04 10° WSW 02:03:26 40° S 02:07:46 10° ESE visible
24 Jun - 03:41:14 10° W 03:44:56 24° SSW 03:48:36 10° SSE daylight
24 Jun - 23:02:10 10° SSW 23:06:03 26° SSE 23:09:56 10° E visible
25 Jun - 00:43:13 10° WSW 00:47:37 41° S 00:51:58 10° ESE visible
25 Jun - 02:25:04 10° W 02:29:16 33° SSW 02:33:24 10° SE visible
25 Jun - 04:07:52 10° WSW 04:10:31 15° SW 04:13:08 10° S daylight
25 Jun - 21:47:32 10° S 21:50:29 17° SE 21:53:25 10° ESE visible
25 Jun - 23:27:33 10° SW 23:31:49 35° SSE 23:36:03 10° E visible
26 Jun - 01:09:05 10° WSW 01:13:28 40° S 01:17:49 10° ESE visible
26 Jun - 02:51:13 10° W 02:54:59 25° SSW 02:58:44 10° SSE daylight
26 Jun - 22:12:15 10° SSW 22:16:06 25° SSE 22:19:56 10° E visible
26 Jun - 23:53:14 10° WSW 23:57:39 41° S 00:02:00 10° ESE visible
27 Jun - 01:35:04 10° W 01:39:17 34° SSW 01:43:29 10° SE visible
27 Jun - 03:17:46 10° WSW 03:20:35 16° SW 03:23:23 10° S daylight
27 Jun - 20:57:44 10° S 21:00:33 16° SE 21:03:21 10° ESE daylight
27 Jun - 22:37:36 10° SW 22:41:51 34° SSE 22:46:05 10° E visible
